Regional Weather Roundup
Issued by NWS

Home | Current Version | Previous Version | Graphics & Text | Print | Product List | Glossary On
Versions: 1 2 3 4 5 6 7 8 9 10 11 12 13 14 15 16 17 18 19 20 21 22 23 24 25 26 27 28 29 30 31 32 33 34 35 36 37 38 39 40 41 42 43 44 45 46 47 48 49 50
000
ASUS43 KMKX 212221
RWRWI

WISCONSIN REGIONAL WEATHER ROUNDUP
NATIONAL WEATHER SERVICE MILWAUKEE/SULLIVAN WI
500 PM CDT SUN SEP 21 2014

NOTE: "FAIR" INDICATES FEW OR NO CLOUDS BELOW 12,000 FEET WITH NO
SIGNIFICANT WEATHER AND/OR OBSTRUCTIONS TO VISIBILITY.

WIZ001-002-006>008-014>016-023>028-212300-
NORTHWEST WISCONSIN

CITY           SKY/WX    TMP DP  RH WIND       PRES   REMARKS
SUPERIOR ARPT  SUNNY     65  42  43 NW7       30.12S
ASHLAND        SUNNY     60  43  53 VRB5      30.13S
HAYWARD        SUNNY     61  40  45 VRB7      30.13R
SIREN          SUNNY     64  43  46 NW9       30.14R
RICE LAKE      SUNNY     63  42  47 NW8       30.14R
LADYSMITH      SUNNY     60  42  51 N12G17    30.14R
EAU CLAIRE     SUNNY     64  43  46 NW14G21   30.11R
MENOMONIE      CLEAR     65  43  45 NW16      30.12R
NEW RICHMOND   SUNNY     64  43  46 N12G20    30.15R
OSCEOLA        SUNNY     65  47  52 NW7       30.17S
$$

WIZ003>005-009-010-017-018-212300-
NORTH CENTRAL WISCONSIN

CITY           SKY/WX    TMP DP  RH WIND       PRES   REMARKS
WOODRUFF       SUNNY     52  37  56 N13G21    30.11R
RHINELANDER    SUNNY     52  38  58 N8G20     30.10R
EAGLE RIVER    MOSUNNY   50  35  55 NW13G23   30.10R
LAND O LAKES   MOSUNNY   50  37  59 N12G18    30.11R
PHILLIPS       SUNNY     54  39  58 N7        30.12R
TOMAHAWK       SUNNY     53  39  58 NW12G17   30.11R
MEDFORD        MOSUNNY   56  42  61 N16       30.10R
MERRILL        SUNNY     56  41  57 N10G17    30.09R
$$

WIZ029-030-035-036-043>047-212300-
CENTRAL WISCONSIN

CITY           SKY/WX    TMP DP  RH WIND       PRES   REMARKS
WAUSAU         MOSUNNY   58  40  51 N14G20    30.07R
MOSINEE        MOSUNNY   57  43  58 NW16      30.08R
MARSHFIELD     SUNNY     61  44  53 N15       30.08R
STEVENS POINT  SUNNY     58  41  53 N10       30.07R
WAUPACA        SUNNY     61  42  48 NW12G18   30.05R
WAUTOMA        SUNNY     61  43  51 N13       30.06R
WISC RAPIDS    SUNNY     62  42  47 N16       30.08R
CAMP DOUGLAS   SUNNY     64  46  52 NW13G18   30.07R
$$

WIZ011>013-019>022-031-037>040-048>050-212300-
NORTHEAST WISCONSIN

CITY           SKY/WX    TMP DP  RH WIND       PRES   REMARKS
ANTIGO         SUNNY     54  42  65 N12G21    30.07R
STURGEON BAY   MOSUNNY   54  39  58 N16       30.04R
GREEN BAY      MOSUNNY   58  42  55 N15       30.04R
MANITOWOC      CLOUDY    57  46  66 N14G20    30.02R
APPLETON       MOSUNNY   57  39  51 NW13      30.04R
CLINTONVILLE   SUNNY     59  39  47 N9        30.05R
OSHKOSH        MOSUNNY   60  43  53 NW13G22   30.03R
$$

WIZ032>034-041-042-053>061-212300-
SOUTHWEST WISCONSIN

CITY           SKY/WX    TMP DP  RH WIND       PRES   REMARKS
LA CROSSE      PTSUNNY   67  45  45 NW14      30.09R
SPARTA         MOSUNNY   65  42  43 NW13G22   30.09R
VIROQUA        MOCLDY    62  45  54 NW14G20   30.09R
BOSCOBEL       MOSUNNY   67  44  43 N10       30.08R
PRAIRIE DU CHI MOSUNNY   66  43  43 NW14      30.09R
PLATTEVILLE    PTSUNNY   65  47  50 N10G20    30.07S
$$

WIZ056-057-062-063-064-067-068-212300-
SOUTH CENTRAL WISCONSIN

CITY           SKY/WX    TMP DP  RH WIND       PRES   REMARKS
BARABOO/DELLS  SUNNY     63  41  43 N9G17     30.06R
LONE ROCK      MOSUNNY   69  45  41 NW12      30.06R
WATERTOWN      MOSUNNY   60  44  54 NW12G23   30.03R
MADISON        PTSUNNY   64  44  48 N10G21    30.04R
MIDDLETON      FAIR      64  42  44 NW12G17   30.05R
MONROE         SUNNY     63  45  51 NW12G21   30.04R
JANESVILLE     MOSUNNY   64  43  45 N14G26    30.02R
$$

WIZ051-052-058>065-066-070>072-212300-
SOUTHEAST WISCONSIN

CITY           SKY/WX    TMP DP  RH WIND       PRES   REMARKS
MILWAUKEE      PTSUNNY   59  42  53 N18G30    30.01R
WAUKESHA       MOSUNNY   57  43  58 NW16G24   30.03R
MILWAUKEE/TIMM MOSUNNY   59  43  55 N20       30.02R
RACINE         PTSUNNY   61  47  59 N16G23    30.02R
BURLINGTON     MOSUNNY   61  43  51 NW14G20   30.01R
KENOSHA        PTSUNNY   62  48  60 N13G23    30.00R
FOND DU LAC    MOSUNNY   59  42  53 N14G22    30.03R
SHEBOYGAN      MOSUNNY   58  42  55 NW13G21   30.02R
WEST BEND      MOSUNNY   55  41  58 N9G22     30.03R
JUNEAU         MOSUNNY   59  43  54 NW12G21   30.04R
$$

LSZ147-162-212300-
LAKE SUPERIOR

STATION/POSITION TIME  TEMP    WIND        PRES    WAVE
                       AIR SEA DIR/SP/G            HT/PER
                 (UTC) (F)     (DEG/KT/KT) (MB)    (FT/S)
W MID LAKE BUOY  2150   49 47  220/ 10/ 12 1019.5S   2/ 5
DEVILS ISLAND    2200   54     230/  5/  7 1020.1R
PORT WING        2140   57     290/  2/  4 1020.0S
SAXON HARBOR     2100   54        CALM     1020.7S
$$

LMZ867-665-643>646-212300-
LAKE MICHIGAN

STATION/POSITION TIME  TEMP    WIND        PRES    WAVE
                       AIR SEA DIR/SP/G            HT/PER
                 (UTC) (F)     (DEG/KT/KT) (MB)    (FT/S)
N MID LAKE BUOY  2150   48 57  340/ 25/ 33 1015.7R   6/ 6
NORTHPORT PIER   2124   50     330/ 24     1015.9R
KEWAUNEE LAKESHO 2200   56     330/ 12/ 18 1015.8R
SHEBOYGAN LAKESH 2200   57 52  330/ 17/ 20 1016.7R
PORT WASHINGTON  2110   58     320/ 10/ 16 1016.6R
ATWATER BUOY     2200   57     340/ 16/ 19 1017.5R
MILWAUKEE LAKESH 2200   58     340/ 17/ 22   N/A
S MID LAKE BUOY  2150   57 62  350/ 23/ 27 1014.8R   9/ 8
KENOSHA   LAKESH 2200   57      20/ 17/ 19 1015.6R
$$

TC  - TEMPERATURE IN CELSIUS
VSB - VISIBILITY IN STATUTE MILES
WCI - WIND CHILL INDEX
HX  - HEAT INDEX




USA.gov is the U.S. government's official web portal to all federal, state and local government web resources and services.